Flag Weather past 2 weeks in Lille, France

Now
66 °F

Passing clouds.


Feels Like: 66 °F
Forecast: 51 / 62 °F
Wind: 8 mph from South

Location: Lille Airport

Current Time: Nov 1, 2014 at 1:45:04 PM

Latest Report: Nov 1, 2014 at 1:00 PM


Visibility: N/A

Pressure: 30.07 "Hg

Humidity: 73%

Dew point: 57 °F

Location of LilleLocation

Historic Weather in Lille — Graph

°F

Lille temperature yesterday

Maximum temperature yesterday: 66 °F (at 1:30 PM)
Minimum temperature yesterday: 52 °F (at 3:00 AM)
Average temperature yesterday: 57 °F

Past Weeks' High & Low Weather Summary

 TemperatureHumidityPressure
High73 °F (Oct 18, 4:00 PM)100% (Oct 19, 3:30 AM)30.24 "Hg (Oct 19, 3:30 AM)
Low45 °F (Oct 22, 4:00 AM)55% (Oct 21, 3:30 PM)29.59 "Hg (Oct 21, 1:00 PM)
Average56 °F86%30.08 "Hg
* Reported Oct 17 2:00 PM — Nov 1 1:00 PM, Lille, Weather by CustomWeather, © 2014

Note: Actual official high and low records may vary slightly from our data, if they occured in-between our weather recording intervals... More about our weather records

Advertising

Lille weather history for previous 24 hours

 ConditionsComfort  
Time TempWeatherWind HumidityBarometerVisibility
1:00 PM
Nov 1
66 °FPassing clouds.8 mph73%30.07 "HgN/A
12:30 PM64 °FSunny.7 mph73%30.07 "Hg10 mi
12:00 PM63 °FSunny.8 mph77%30.07 "Hg10 mi
11:30 AM61 °FSunny.8 mph77%30.09 "Hg10 mi
11:00 AM61 °FSunny.8 mph77%30.09 "Hg10 mi
10:30 AM59 °FSunny.8 mph82%30.09 "Hg10 mi
10:00 AM57 °FPassing clouds.6 mph82%30.09 "HgN/A
9:30 AM57 °FPassing clouds.7 mph82%30.09 "HgN/A
9:00 AM54 °FSunny.7 mph88%30.09 "Hg10 mi
8:30 AM54 °FSunny.9 mph88%30.07 "Hg10 mi
8:00 AM54 °FSunny.9 mph88%30.07 "Hg10 mi
7:30 AM54 °FClear.7 mph88%30.07 "Hg10 mi
7:00 AM52 °FClear.10 mph94%30.07 "Hg10 mi
6:30 AM52 °FClear.7 mph94%30.07 "Hg10 mi
6:00 AM52 °FClear.9 mph94%30.07 "Hg10 mi
5:30 AM54 °FClear.8 mph88%30.07 "Hg10 mi
5:00 AM52 °FClear.9 mph94%30.07 "Hg10 mi
4:30 AM52 °FClear.9 mph94%30.07 "HgN/A
4:00 AM54 °FClear.9 mph88%30.07 "Hg10 mi
3:30 AM54 °FClear.6 mph94%30.07 "HgN/A
3:00 AM54 °FClear.7 mph94%30.07 "HgN/A
2:30 AM54 °FClear.8 mph94%30.09 "HgN/A
2:00 AM55 °FClear.7 mph88%30.09 "HgN/A
1:30 AM55 °FClear.8 mph88%30.09 "HgN/A
1:00 AM55 °FClear.8 mph94%30.09 "Hg10 mi
12:30 AM55 °FClear.8 mph94%30.09 "Hg10 mi
12:00 AM55 °FClear.7 mph94%30.09 "Hg10 mi
11:30 PM
Oct 31
55 °FClear.7 mph94%30.09 "Hg10 mi
11:00 PM55 °FClear.8 mph94%30.09 "Hg10 mi
10:30 PM55 °FClear.6 mph94%30.09 "Hg10 mi
10:00 PM55 °FClear.5 mph94%30.09 "Hg10 mi
9:30 PM57 °FClear.8 mph88%30.09 "Hg10 mi
9:00 PM57 °FClear.8 mph88%30.09 "Hg10 mi
8:30 PM57 °FClear.7 mph94%30.09 "Hg10 mi
8:00 PM57 °FClear.8 mph94%30.09 "Hg10 mi
7:30 PM57 °FClear.7 mph94%30.09 "Hg10 mi
7:00 PM59 °FClear.7 mph88%30.12 "Hg10 mi
6:30 PM59 °FClear.6 mph88%30.12 "Hg10 mi
6:00 PM59 °FClear.7 mph88%30.12 "Hg10 mi
5:30 PM61 °FClear.7 mph83%30.12 "Hg10 mi
4:30 PM64 °FSunny.9 mph78%30.12 "Hg10 mi
4:00 PM66 °FSunny.8 mph73%30.12 "Hg10 mi
3:30 PM66 °FSunny.9 mph68%30.12 "Hg10 mi
3:00 PM66 °FSunny.10 mph73%30.12 "Hg10 mi
2:30 PM66 °FSunny.9 mph68%30.12 "Hg10 mi
2:00 PM66 °FSunny.10 mph68%30.12 "Hg10 mi
1:30 PM66 °FSunny.9 mph68%30.15 "Hg10 mi
1:00 PM64 °FSunny.8 mph73%30.15 "Hg10 mi
Weather by CustomWeather, © 2014

See weather overviewHow to use our weather pages